SCP
0 0 0 0 0 0 0 0 0 0 0 0 0 0 0 0 0 0 0 0 0 0 0 0 0 0 0 0 0 0 0 0 0 0 0 0 0 0 0 0 0 0 0
0 0 0 0 0 0 0 0 0 0 0 0 0 0 0 0 0 0 0 0 0 0 0 0 0 0 0 0 0 0 0 0 0 0 0 0 0 0 0 0 0 0 0
0 0 0 0 0 0 0 0 0 0 0 0 0 0 0 0 0 0 0 0 0 0 0 0 0 0 0 0 0 0 0 0 0 0 0 0 0 0 0 0 0 0 0
0 0 0 0 0 0 0 0 0 0 0 0 0 0 0 0 0 0 0 0 0 0 0 0 0 0 0 0 0 0 0 0 0 0 0 0 0 0 0 0 0 0 0
0 0 0 0 0 0 0 0 0 0 0 0 0 0 0 0 0 0 0 0 0 0 0 0 0 0 0 0 0 0 0 0 0 0 0 0 0 0 0 0 0 0 0
0 0 0 0 0 0 0 0 0 0 0 0 0 0 0 0 0 0 0 0 0 0 0 0 0 0 0 0 0 0 0 0 0 0 0 0 0 0 0 0 0 0 0
0 0 0 0 0 0 0 0 0 0 0 0 0 0 0 0 0 0 0 0 0 0 0 0 0 0 0 0 0 0 0 0 0 0 0 0 0 0 0 0 0 0 0
0 0 0 0 0 0 0 0 0 0 0 0 0 0 0 0 0 0 0 0 0 0 0 0 0 0 0 0 0 0 0 0 0 0 0 0 0 0 0 0 0 0 0
0 0 0 0 0 0 0 0 0 0 0 0 0 0 0 0 0 0 0 0 0 0 0 0 0 0 0 0 0 0 0 0 0 0 0 0 0 0 0 0 0 0 0
0 0 0 0 0 0 0 0 0 0 0 0 0 0 0 0 0 0 0 0 0 0 0 0 0 0 0 0 0 0 0 0 0 0 0 0 0 0 0 0 0 0 0
0 0 0 0 0 0 0 0 0 0 0 0 0 0 0 0 0 0 0 0 0 0 0 0 0 0 0 0 0 0 0 0 0 0 0 0 0 0 0 0 0 0 0
0 0 0 0 0 0 0 0 0 0 0 0 0 0 0 0 0 0 0 0 0 0 0 0 0 0 0 0 0 0 0 0 0 0 0 0 0 0 0 0 0 0 0
0 0 0 0 0 0 0 0 0 0 0 0 0 0 0 0 0 0 0 0 0 0 0 0 0 0 0 0 0 0 0 0 0 0 0 0 0 0 0 0 0 0 0
0 0 0 0 0 0 0 0 0 0 0 0 0 -0 0 0 0 0 0 0 0 0 0 0 0 0 0 0 0 0 0 0 0 0 0 0 0 0 0 0 0 0 0
0 0 0 0 0 0 0 0 0 0 0 0 -0 -0 0 0 0 0 0 0 0 0 0 0 0 0 0 0 0 0 0 0 0 0 0 0 0 0 0 0 0 0 0
0 0 0 0 0 0 0 0 0 0 0 -0 -0 -0 0 -0 -0 -0 0 0 0 0 0 0 0 0 0 0 0 0 0 0 0 0 0 0 0 0 0 0 0 0 0
0 0 0 0 0 0 0 0 0 0 0 -0 -0 -0 -0 -0 -0 -0 0 0 0 0 -0 0 0 0 0 0 0 0 0 0 0 0 0 0 0 0 0 0 0 0 0
0 0 0 0 0 0 0 0 0 0 0 0 0 -0 -0 -0 -0 -0 -0 0 0 0 -0 0 0 0 0 0 0 0 0 0 0 0 0 0 0 0 0 0 0 0 0
0 0 0 0 0 0 0 0 0 0 0 0 0 0 -0 -0 -0 -0 0 -0 0 0 0 0 0 0 0 0 0 0 0 0 0 0 0 0 0 0 0 0 0 0 -0
0 0 0 0 0 0 0 0 0 0 0 0 0 0 0 0 -0 0 0 0 0 0 0 0 0 0 0 0 0 0 0 0 0 0 0 0 0 0 -0 -0 -0 -0 -0
0 0 0 0 0 0 0 0 0 0 0 0 0 0 0 -0 -0 0 0 0 0 0 0 0 0 0 0 0 0 -0 -0 -0 -0 -0 -0 -0 -0 -0 -0 -0 -0 -0 -0
0 0 0 0 0 0 0 0 0 0 0 0 0 0 0 0 0 -0 -0 0 0 0 0 0 -0 -0 -0 -0 -0 -0 -0 -0 -0 -0 -0 -0 -0 -0 -0 -0 -0 -0 -0
0 0 0 0 0 0 0 0 0 0 0 0 0 0 0 0 0 0 -0 -0 -0 0 -0 -0 -0 -0 -0 -0 -0 -0 -0 -0 -0 -0 -0 -0 -0 -0 -0 -0 -0 -0 -0
0 0 0 0 0 0 0 0 0 0 0 0 0 0 0 0 0 0 0 -0 -0 -0 -0 -0 -0 -0 -0 -0 -0 -0 -0 -0 -0 -0 -0 -0 -0 -0 -0 -0 -0 -0 0
0 0 0 0 0 0 0 0 0 0 0 0 0 0 0 0 0 0 0 0 -0 0 0 0 0 -0 -0 -0 -0 -0 -0 0 -0 -0 -0 -0 0 0 0 0 0 0 0
0 0 0 0 0 0 0 0 0 0 0 0 0 0 0 0 0 0 0 0 0 0 0 0 0 0 0 0 0 -0 -0 -0 -0 0 0 0 0 0 0 0 0 0 0
Wind_Speed_500mb
79 78 77 76 76 77 78 77 77 78 79 78 79 79 80 82 79 73 69 65 63 69 65 63 67 58 56 59 60 57 63 60 58 48 41 41 44 41 40 44 47 47 48
76 75 76 78 79 79 78 78 77 79 79 79 79 79 78 76 75 70 68 67 69 66 64 65 64 61 55 54 49 55 58 56 56 50 49 48 48 44 40 42 43 44 45
74 77 80 80 82 81 81 81 79 80 80 80 79 80 79 76 75 70 65 65 65 64 60 62 62 58 49 46 43 43 40 39 41 42 39 37 36 33 32 33 33 35 38
79 82 86 85 83 82 82 85 81 81 84 84 84 82 79 78 74 68 64 70 72 72 62 56 56 51 43 36 38 36 33 32 33 33 32 28 30 30 35 39 37 31 30
84 85 84 83 80 81 82 85 85 85 88 92 94 91 82 76 73 62 70 72 77 71 62 56 64 47 42 40 38 37 34 33 36 37 34 31 35 36 36 32 32 29 31
83 83 85 78 82 84 82 92 86 90 97 98 97 98 87 75 70 64 64 67 64 61 61 51 56 48 38 46 38 38 37 27 31 34 37 36 30 29 28 25 26 27 26
81 87 83 78 88 84 80 88 85 96 104 110 106 93 82 72 66 63 66 58 59 52 49 48 48 37 25 35 28 22 25 28 28 27 31 29 27 27 21 24 25 26 26
83 86 76 81 83 93 91 90 99 106 106 97 89 79 70 71 62 61 61 54 51 45 43 37 34 30 22 16 18 27 29 32 35 38 39 34 30 27 31 24 16 23 31
85 82 78 89 100 101 91 89 87 82 81 77 72 70 74 68 53 55 53 48 51 42 34 22 17 15 16 19 23 23 27 29 31 29 30 26 17 17 13 16 23 28 41
84 80 94 100 91 93 88 84 77 67 65 73 74 73 62 54 43 51 44 50 50 40 36 29 24 23 26 28 29 27 26 23 20 16 16 18 22 25 26 29 30 34 38
75 95 95 98 95 88 84 74 68 67 70 80 64 62 50 50 52 46 42 47 42 38 36 29 20 19 21 20 20 19 15 11 9 10 10 15 19 19 19 24 27 31 35
94 98 100 97 91 80 68 67 69 75 60 57 62 59 50 60 47 43 44 40 35 37 37 24 28 27 15 11 12 15 9 9 14 15 17 19 25 30 31 32 32 33 36
96 99 97 92 79 75 63 76 61 62 60 58 56 61 68 60 53 46 41 43 39 37 28 31 23 23 24 18 18 20 22 21 22 26 27 29 30 30 29 30 31 36 42
95 96 93 86 82 74 71 62 55 59 56 60 63 64 64 59 53 51 52 50 45 41 36 24 24 21 17 19 21 18 17 18 22 24 26 27 28 29 28 30 35 38 47
91 90 86 83 80 75 67 60 55 51 51 59 59 58 59 55 51 49 45 44 40 35 34 28 17 20 24 18 19 21 20 23 25 29 32 31 32 33 34 34 39 43 49
87 85 82 79 74 70 69 71 56 48 49 46 44 44 47 41 43 45 42 39 34 33 32 17 10 3 12 16 19 21 25 29 35 37 37 36 35 35 36 37 41 44 49
78 77 75 70 69 70 69 69 76 69 55 46 43 44 40 40 39 38 37 28 29 37 31 23 18 15 16 20 25 30 34 38 41 41 39 38 39 40 41 43 43 45 50
73 68 66 66 67 66 65 63 63 65 71 68 54 48 42 38 40 37 33 36 30 26 26 25 24 25 27 30 32 35 38 38 39 39 40 40 42 44 46 48 46 47 48
68 64 64 65 62 60 60 60 59 60 61 63 65 57 42 39 41 38 40 32 30 27 25 23 24 26 26 27 28 30 34 36 40 41 41 42 43 47 50 51 48 46 45
64 61 62 63 63 63 61 61 62 61 62 63 63 62 57 63 62 47 38 33 28 27 27 29 28 29 29 29 29 31 34 37 38 39 40 42 44 47 50 50 47 48 40
64 64 62 62 64 63 62 62 61 62 62 63 61 58 47 53 48 44 41 37 34 31 31 33 34 33 33 35 37 39 41 41 41 41 42 43 43 47 45 47 47 42 37
62 61 63 65 64 62 61 61 62 63 63 64 64 59 49 48 47 44 40 36 32 30 31 36 36 35 35 37 39 42 44 44 42 42 43 43 42 42 43 43 39 35 32
61 63 64 64 62 63 63 63 65 66 66 64 63 60 55 53 52 50 46 40 35 33 32 35 40 40 38 39 41 44 48 46 42 42 42 40 38 37 36 36 33 31 31
64 62 64 64 64 64 65 67 68 68 68 67 64 60 57 54 53 51 47 44 40 35 35 37 40 42 42 41 41 43 45 44 42 40 37 35 33 30 31 30 27 27 32
63 62 61 63 64 65 67 69 71 71 70 67 64 60 58 57 54 50 45 43 42 41 38 36 36 38 40 42 42 40 39 37 34 30 29 30 29 25 25 24 23 28 34
61 59 58 60 63 65 68 71 72 72 72 68 64 61 59 55 52 50 48 45 44 43 40 36 32 30 34 37 36 34 31 27 23 20 19 21 21 18 17 19 23 31 36
Wind_Direction_500mb
326 325 324 323 325 324 322 322 321 319 319 319 319 320 321 321 323 318 312 307 302 300 300 295 299 282 274 270 267 262 252 251 244 242 224 218 218 226 235 251 255 256 256
327 326 326 326 325 323 320 321 322 321 320 320 319 318 319 320 320 317 313 308 302 297 297 300 296 283 273 266 259 256 250 246 240 232 233 232 238 243 247 249 253 257 259
328 326 324 324 323 322 319 318 317 319 319 320 321 319 318 320 319 317 315 314 314 307 293 291 295 277 267 261 253 250 244 240 235 236 237 234 242 249 254 257 260 260 262
325 322 321 320 319 319 316 316 315 315 318 321 323 322 318 317 319 319 319 316 314 307 295 290 292 268 257 251 244 236 232 230 234 234 234 239 250 259 266 268 267 265 260
325 325 325 324 322 320 318 319 317 315 316 318 320 320 318 315 317 315 311 312 315 310 300 288 288 257 253 241 230 226 224 226 233 241 249 254 247 242 247 254 257 265 270
326 327 326 327 325 324 320 320 320 315 315 316 317 317 315 312 311 310 312 312 310 313 302 288 278 260 254 240 231 234 235 240 250 246 246 247 247 245 237 242 268 281 288
327 329 329 326 322 325 324 317 312 311 313 314 315 315 312 309 310 311 313 315 313 313 306 289 268 256 250 236 225 223 235 244 250 252 251 245 244 250 250 273 276 273 283
327 327 325 323 323 321 318 310 308 310 311 313 315 315 313 309 311 311 315 317 316 313 328 289 270 246 224 251 253 244 252 249 246 240 245 250 248 250 267 266 267 280 283
329 326 324 321 320 321 321 319 317 317 315 315 315 315 313 312 315 313 318 319 323 316 314 318 303 258 239 269 267 256 249 248 244 243 243 242 240 238 250 280 271 274 286
328 324 322 322 324 325 325 323 321 321 322 317 311 312 318 321 322 318 320 323 328 319 313 289 272 279 267 262 255 254 249 246 244 215 214 215 217 221 227 242 260 271 283
325 325 326 330 332 331 330 326 325 325 309 314 317 323 332 334 324 322 323 322 323 317 322 310 275 264 257 243 240 244 246 215 219 216 220 227 231 242 253 267 273 270 274
329 331 333 334 335 333 329 326 315 312 320 327 325 327 329 329 328 327 325 320 326 328 297 314 271 243 227 227 206 222 229 225 197 204 224 252 270 279 280 276 275 266 266
333 334 336 337 338 333 329 321 331 329 326 320 321 322 325 332 336 334 336 338 328 331 331 287 307 264 254 223 202 191 202 217 251 261 267 274 273 273 270 268 263 266 269
334 337 338 340 339 334 335 335 331 330 328 334 327 325 324 328 329 341 333 334 338 333 326 306 264 262 253 222 216 228 237 259 278 284 286 285 284 282 282 283 281 280 286
337 339 341 342 338 339 340 338 328 328 327 323 323 322 323 323 325 331 327 327 330 333 318 332 265 258 236 221 233 225 254 280 288 291 293 289 286 285 286 289 292 297 299
339 341 343 340 343 344 344 343 348 334 330 327 324 324 322 319 322 327 328 326 324 316 320 329 21 170 214 206 221 250 271 282 287 290 291 290 291 291 292 294 297 301 302
341 344 341 344 345 345 345 343 339 347 354 343 339 335 331 326 331 332 334 316 313 311 312 310 298 287 272 267 271 278 282 285 289 290 291 292 292 293 296 298 300 302 301
345 344 343 345 345 343 342 341 343 345 346 353 2 345 340 338 337 335 334 321 306 305 314 308 298 286 280 277 277 279 283 286 287 287 286 289 292 295 295 296 299 300 298
343 345 346 345 345 344 344 345 346 346 345 346 352 355 359 352 341 328 328 330 327 320 312 305 297 290 287 288 287 286 284 282 281 284 288 289 289 290 290 291 295 293 292
342 347 346 345 347 347 347 346 346 345 345 346 343 344 349 344 328 336 335 331 325 316 309 304 300 299 298 294 288 282 280 283 286 288 290 289 288 286 287 289 289 288 286
344 345 345 348 347 345 344 345 344 344 342 340 340 341 334 324 331 334 333 330 324 315 308 302 300 298 294 290 289 290 290 291 293 294 291 287 285 282 282 281 281 282 278
343 342 346 345 343 343 343 343 344 343 344 341 341 340 335 337 338 335 331 326 319 311 305 300 299 297 295 293 291 290 289 289 290 289 286 285 283 280 279 280 281 274 267
345 344 342 342 341 341 342 344 346 345 344 343 341 340 341 338 336 335 331 325 315 305 297 293 293 293 293 292 291 290 289 289 288 283 282 281 278 279 279 278 274 263 270
346 341 340 340 340 341 343 345 346 347 345 343 343 342 340 337 334 332 329 324 319 309 299 293 291 291 291 289 286 286 287 287 284 282 282 279 280 278 277 276 264 267 284
344 341 340 340 341 342 343 346 346 346 345 345 344 343 341 339 338 336 333 328 321 314 307 298 291 286 285 287 290 291 288 284 280 273 269 274 279 279 274 268 271 284 294
345 343 342 342 344 345 345 345 346 346 346 346 346 346 345 345 343 340 337 332 326 321 317 311 303 293 287 288 290 287 282 276 271 270 275 276 275 272 268 272 284 295 302
Wind_Speed_850mb
79 78 77 76 76 77 78 77 77 78 79 78 79 79 80 82 79 73 69 65 63 69 65 63 67 58 56 59 60 57 63 60 58 48 41 41 44 41 40 44 47 47 48
76 75 76 78 79 79 78 78 77 79 79 79 79 79 78 76 75 70 68 67 69 66 64 65 64 61 55 54 49 55 58 56 56 50 49 48 48 44 40 42 43 44 45
74 77 80 80 82 81 81 81 79 80 80 80 79 80 79 76 75 70 65 65 65 64 60 62 62 58 49 46 43 43 40 39 41 42 39 37 36 33 32 33 33 35 38
79 82 86 85 83 82 82 85 81 81 84 84 84 82 79 78 74 68 64 70 72 72 62 56 56 51 43 36 38 36 33 32 33 33 32 28 30 30 35 39 37 31 30
84 85 84 83 80 81 82 85 85 85 88 92 94 91 82 76 73 62 70 72 77 71 62 56 64 47 42 40 38 37 34 33 36 37 34 31 35 36 36 32 32 29 31
83 83 85 78 82 84 82 92 86 90 97 98 97 98 87 75 70 64 64 67 64 61 61 51 56 48 38 46 38 38 37 27 31 34 37 36 30 29 28 25 26 27 26
81 87 83 78 88 84 80 88 85 96 104 110 106 93 82 72 66 63 66 58 59 52 49 48 48 37 25 35 28 22 25 28 28 27 31 29 27 27 21 24 25 26 26
83 86 76 81 83 93 91 90 99 106 106 97 89 79 70 71 62 61 61 54 51 45 43 37 34 30 22 16 18 27 29 32 35 38 39 34 30 27 31 24 16 23 31
85 82 78 89 100 101 91 89 87 82 81 77 72 70 74 68 53 55 53 48 51 42 34 22 17 15 16 19 23 23 27 29 31 29 30 26 17 17 13 16 23 28 41
84 80 94 100 91 93 88 84 77 67 65 73 74 73 62 54 43 51 44 50 50 40 36 29 24 23 26 28 29 27 26 23 20 16 16 18 22 25 26 29 30 34 38
75 95 95 98 95 88 84 74 68 67 70 80 64 62 50 50 52 46 42 47 42 38 36 29 20 19 21 20 20 19 15 11 9 10 10 15 19 19 19 24 27 31 35
94 98 100 97 91 80 68 67 69 75 60 57 62 59 50 60 47 43 44 40 35 37 37 24 28 27 15 11 12 15 9 9 14 15 17 19 25 30 31 32 32 33 36
96 99 97 92 79 75 63 76 61 62 60 58 56 61 68 60 53 46 41 43 39 37 28 31 23 23 24 18 18 20 22 21 22 26 27 29 30 30 29 30 31 36 42
95 96 93 86 82 74 71 62 55 59 56 60 63 64 64 59 53 51 52 50 45 41 36 24 24 21 17 19 21 18 17 18 22 24 26 27 28 29 28 30 35 38 47
91 90 86 83 80 75 67 60 55 51 51 59 59 58 59 55 51 49 45 44 40 35 34 28 17 20 24 18 19 21 20 23 25 29 32 31 32 33 34 34 39 43 49
87 85 82 79 74 70 69 71 56 48 49 46 44 44 47 41 43 45 42 39 34 33 32 17 10 3 12 16 19 21 25 29 35 37 37 36 35 35 36 37 41 44 49
78 77 75 70 69 70 69 69 76 69 55 46 43 44 40 40 39 38 37 28 29 37 31 23 18 15 16 20 25 30 34 38 41 41 39 38 39 40 41 43 43 45 50
73 68 66 66 67 66 65 63 63 65 71 68 54 48 42 38 40 37 33 36 30 26 26 25 24 25 27 30 32 35 38 38 39 39 40 40 42 44 46 48 46 47 48
68 64 64 65 62 60 60 60 59 60 61 63 65 57 42 39 41 38 40 32 30 27 25 23 24 26 26 27 28 30 34 36 40 41 41 42 43 47 50 51 48 46 45
64 61 62 63 63 63 61 61 62 61 62 63 63 62 57 63 62 47 38 33 28 27 27 29 28 29 29 29 29 31 34 37 38 39 40 42 44 47 50 50 47 48 40
64 64 62 62 64 63 62 62 61 62 62 63 61 58 47 53 48 44 41 37 34 31 31 33 34 33 33 35 37 39 41 41 41 41 42 43 43 47 45 47 47 42 37
62 61 63 65 64 62 61 61 62 63 63 64 64 59 49 48 47 44 40 36 32 30 31 36 36 35 35 37 39 42 44 44 42 42 43 43 42 42 43 43 39 35 32
61 63 64 64 62 63 63 63 65 66 66 64 63 60 55 53 52 50 46 40 35 33 32 35 40 40 38 39 41 44 48 46 42 42 42 40 38 37 36 36 33 31 31
64 62 64 64 64 64 65 67 68 68 68 67 64 60 57 54 53 51 47 44 40 35 35 37 40 42 42 41 41 43 45 44 42 40 37 35 33 30 31 30 27 27 32
63 62 61 63 64 65 67 69 71 71 70 67 64 60 58 57 54 50 45 43 42 41 38 36 36 38 40 42 42 40 39 37 34 30 29 30 29 25 25 24 23 28 34
61 59 58 60 63 65 68 71 72 72 72 68 64 61 59 55 52 50 48 45 44 43 40 36 32 30 34 37 36 34 31 27 23 20 19 21 21 18 17 19 23 31 36
Wind_Direction_850mb
326 325 324 323 325 324 322 322 321 319 319 319 319 320 321 321 323 318 312 307 302 300 300 295 299 282 274 270 267 262 252 251 244 242 224 218 218 226 235 251 255 256 256
327 326 326 326 325 323 320 321 322 321 320 320 319 318 319 320 320 317 313 308 302 297 297 300 296 283 273 266 259 256 250 246 240 232 233 232 238 243 247 249 253 257 259
328 326 324 324 323 322 319 318 317 319 319 320 321 319 318 320 319 317 315 314 314 307 293 291 295 277 267 261 253 250 244 240 235 236 237 234 242 249 254 257 260 260 262
325 322 321 320 319 319 316 316 315 315 318 321 323 322 318 317 319 319 319 316 314 307 295 290 292 268 257 251 244 236 232 230 234 234 234 239 250 259 266 268 267 265 260
325 325 325 324 322 320 318 319 317 315 316 318 320 320 318 315 317 315 311 312 315 310 300 288 288 257 253 241 230 226 224 226 233 241 249 254 247 242 247 254 257 265 270
326 327 326 327 325 324 320 320 320 315 315 316 317 317 315 312 311 310 312 312 310 313 302 288 278 260 254 240 231 234 235 240 250 246 246 247 247 245 237 242 268 281 288
327 329 329 326 322 325 324 317 312 311 313 314 315 315 312 309 310 311 313 315 313 313 306 289 268 256 250 236 225 223 235 244 250 252 251 245 244 250 250 273 276 273 283
327 327 325 323 323 321 318 310 308 310 311 313 315 315 313 309 311 311 315 317 316 313 328 289 270 246 224 251 253 244 252 249 246 240 245 250 248 250 267 266 267 280 283
329 326 324 321 320 321 321 319 317 317 315 315 315 315 313 312 315 313 318 319 323 316 314 318 303 258 239 269 267 256 249 248 244 243 243 242 240 238 250 280 271 274 286
328 324 322 322 324 325 325 323 321 321 322 317 311 312 318 321 322 318 320 323 328 319 313 289 272 279 267 262 255 254 249 246 244 215 214 215 217 221 227 242 260 271 283
325 325 326 330 332 331 330 326 325 325 309 314 317 323 332 334 324 322 323 322 323 317 322 310 275 264 257 243 240 244 246 215 219 216 220 227 231 242 253 267 273 270 274
329 331 333 334 335 333 329 326 315 312 320 327 325 327 329 329 328 327 325 320 326 328 297 314 271 243 227 227 206 222 229 225 197 204 224 252 270 279 280 276 275 266 266
333 334 336 337 338 333 329 321 331 329 326 320 321 322 325 332 336 334 336 338 328 331 331 287 307 264 254 223 202 191 202 217 251 261 267 274 273 273 270 268 263 266 269
334 337 338 340 339 334 335 335 331 330 328 334 327 325 324 328 329 341 333 334 338 333 326 306 264 262 253 222 216 228 237 259 278 284 286 285 284 282 282 283 281 280 286
337 339 341 342 338 339 340 338 328 328 327 323 323 322 323 323 325 331 327 327 330 333 318 332 265 258 236 221 233 225 254 280 288 291 293 289 286 285 286 289 292 297 299
339 341 343 340 343 344 344 343 348 334 330 327 324 324 322 319 322 327 328 326 324 316 320 329 21 170 214 206 221 250 271 282 287 290 291 290 291 291 292 294 297 301 302
341 344 341 344 345 345 345 343 339 347 354 343 339 335 331 326 331 332 334 316 313 311 312 310 298 287 272 267 271 278 282 285 289 290 291 292 292 293 296 298 300 302 301
345 344 343 345 345 343 342 341 343 345 346 353 2 345 340 338 337 335 334 321 306 305 314 308 298 286 280 277 277 279 283 286 287 287 286 289 292 295 295 296 299 300 298
343 345 346 345 345 344 344 345 346 346 345 346 352 355 359 352 341 328 328 330 327 320 312 305 297 290 287 288 287 286 284 282 281 284 288 289 289 290 290 291 295 293 292
342 347 346 345 347 347 347 346 346 345 345 346 343 344 349 344 328 336 335 331 325 316 309 304 300 299 298 294 288 282 280 283 286 288 290 289 288 286 287 289 289 288 286
344 345 345 348 347 345 344 345 344 344 342 340 340 341 334 324 331 334 333 330 324 315 308 302 300 298 294 290 289 290 290 291 293 294 291 287 285 282 282 281 281 282 278
343 342 346 345 343 343 343 343 344 343 344 341 341 340 335 337 338 335 331 326 319 311 305 300 299 297 295 293 291 290 289 289 290 289 286 285 283 280 279 280 281 274 267
345 344 342 342 341 341 342 344 346 345 344 343 341 340 341 338 336 335 331 325 315 305 297 293 293 293 293 292 291 290 289 289 288 283 282 281 278 279 279 278 274 263 270
346 341 340 340 340 341 343 345 346 347 345 343 343 342 340 337 334 332 329 324 319 309 299 293 291 291 291 289 286 286 287 287 284 282 282 279 280 278 277 276 264 267 284
344 341 340 340 341 342 343 346 346 346 345 345 344 343 341 339 338 336 333 328 321 314 307 298 291 286 285 287 290 291 288 284 280 273 269 274 279 279 274 268 271 284 294
345 343 342 342 344 345 345 345 346 346 346 346 346 346 345 345 343 340 337 332 326 321 317 311 303 293 287 288 290 287 282 276 271 270 275 276 275 272 268 272 284 295 302